Content
SEND FEEDBACK

Daily
Averages
Monthly
Summary
United Kingdom

DUNGENESS, ENGLAND


Home > Europe > United Kingdom > England
Elevation: 10 feet     Latitude: 50 55N     Longitude: 000 58E

WEATHER
 
SELECT A DAY
Number of Records: 67,507;   Date Range: 7/1/96 - 9/14/14
 
SHARE

PRINT THIS DATA

[ ← Previous Day ]
WEATHER ALMANAC - NOVEMBER 16, 2013
[ Next Day → ]
[ °C ]   °F
Weather ElementAverageHighLow
Temperature46.5 °F53.6 °F (1:20 pm)39.2 °F (8:50 am)
Dewpoint41.8 °F44.6 °F (11:50 am)37.4 °F (8:50 am)
Humidity84.1 %100 % (6:20 pm)71 % (12:20 pm)
Barometer30.46 in30.51 in (8:50 am)30.42 in (2:50 pm)
Wind Speed5.4 mph8.1 mph (9:20 am)
Weather ElementAverage
Wind DirectionW (265.2 °)

Weather ElementTotal
Precipitation---
Heating Degree Days18.6 (Base 65)
Averaged from 21 records on November 16, 2013
WEATHER CONDITIONS BREAKOUT
WIND DIRECTION BREAKOUT
WEATHER BY HOUR - NOVEMBER 16, 2013
[ °C ]   °F
Local TimeTemperatureDewpointHumidityBarometerVisibilityWind DirectionWind SpeedGust SpeedPrecipitationEventsConditions
8:50 AM39.2 °F37.4 °F93 %30.51 inNW (310°)5.8 mphClear
9:20 AM41.0 °F39.2 °F93 %30.51 inNNW (330°)8.1 mphClear
9:50 AM42.8 °F41.0 °F93 %30.51 inNNW (330°)6.9 mphClear
10:20 AM44.6 °F41.0 °F87 %30.51 inNW (320°)5.8 mphClear
10:50 AM46.4 °F42.8 °F87 %30.51 inNW (320°)6.9 mphClear
11:20 AM48.2 °F42.8 °F82 %30.48 inNW (320°)5.8 mphClear
11:50 AM50.0 °F44.6 °F82 %30.48 inNW (310°)5.8 mphClear
12:20 PM51.8 °F42.8 °F71 %30.48 inWNW (290°)5.8 mphClear
12:50 PM51.8 °F42.8 °F71 %30.48 inWNW (290°)4.6 mphClear
1:20 PM53.6 °F44.6 °F72 %30.45 inWest (260°)3.5 mphClear
1:50 PM53.6 °F44.6 °F72 %30.45 inWest (270°)5.8 mphClear
2:20 PM51.8 °F44.6 °F76 %30.45 inWSW (250°)6.9 mphClear
2:50 PM51.8 °F44.6 °F76 %30.42 inWest (260°)4.6 mphClear
3:20 PM51.8 °F44.6 °F76 %30.42 inWSW (240°)2.3 mphClear
3:50 PM48.2 °F42.8 °F82 %30.42 inNorth (350°)2.3 mphClear
4:20 PM44.6 °F41.0 °F87 %30.42 inNorth (350°)4.6 mphClear
4:50 PM42.8 °F41.0 °F93 %30.42 inNNE (30°)3.5 mphClear
5:20 PM42.8 °F39.2 °F87 %30.42 inNorth (10°)3.5 mphClear
5:50 PM39.2 °F37.4 °F93 %30.42 inNNE (20°)6.9 mphClear
6:20 PM39.2 °F39.2 °F100 %30.42 inNorth (360°)6.9 mphClear
6:50 PM41.0 °F39.2 °F93 %30.42 inNorth (350°)6.9 mphClear
Hourly data recorded from EGMD, located miles away from Dungeness, England







STORIES FROM OUR PARTNERS